KC4ANB Weather Reports


time (UTC)temp
C
wind
direction
speed
KPH
gust
KPH
rain 1hr
cm
rain 24hr
cm
rain mn
cm
humidity
%
barometer
mb
20260510225218 24 0.0 0.0 0.00 0.00 0.00 69 1015.2
20260510224238 24 0.0 0.0 0.00 0.00 0.00 68 1015.2
20260510223217 24 0.0 0.0 0.00 0.00 0.00 69 1015.4
20260510222217 24 0.0 0.0 0.00 0.00 0.00 68 1015.4
20260510221218 24 0.0 0.0 0.00 0.00 0.00 69 1015.4
20260510220218 24 0.0 0.0 0.00 0.00 0.00 70 1015.4
20260510215217 25 0.0 0.0 0.00 0.00 0.00 68 1015.4
20260510214218 25 90 1.6 3.2 0.00 0.00 0.00 66 1015.4
20260510213217 25 0.0 1.6 0.00 0.00 0.00 63 1015.5
20260510212217 25 0.0 1.6 0.00 0.00 0.00 64 1015.6
20260510211217 25 338 1.6 3.2 0.00 0.00 0.00 65 1015.5
20260510210258 25 293 1.6 3.2 0.00 0.00 0.00 65 1015.5
20260510205217 25 203 1.6 3.2 0.00 0.00 0.00 65 1015.5
20260510204217 25 0.0 0.0 0.00 0.00 0.00 65 1015.6
20260510203217 25 158 1.6 6.4 0.00 0.00 0.00 65 1015.6
20260510202217 25 0.0 1.6 0.00 0.00 0.00 67 1015.6
20260510201238 25 0.0 1.6 0.00 0.00 0.00 66 1015.7
20260510200217 25 180 1.6 3.2 0.00 0.00 0.00 67 1015.7
20260510195217 25 180 1.6 4.8 0.00 0.00 0.00 66 1015.8
20260510194217 25 45 1.6 4.8 0.00 0.00 0.00 66 1015.9
20260510193237 25 0.0 0.0 0.00 0.00 0.00 64 1015.9
20260510192217 25 135 1.6 1.6 0.00 0.00 0.00 67 1015.9
20260510191217 25 338 3.2 3.2 0.00 0.00 0.00 66 1016.0
20260510190237 25 0.0 1.6 0.00 0.00 0.00 67 1016.1
20260510185257 24 203 1.6 3.2 0.00 0.00 0.00 68 1016.2
20260510184217 24 90 1.6 3.2 0.00 0.00 0.00 69 1016.2
20260510183217 24 135 1.6 3.2 0.00 0.00 0.00 70 1016.2
20260510182217 24 0 1.6 3.2 0.00 0.00 0.00 70 1016.4
20260510181217 25 0.0 1.6 0.00 0.00 0.00 65 1016.3
20260510180237 25 135 3.2 6.4 0.00 0.00 0.00 66 1016.5
20260510175217 25 203 1.6 4.8 0.00 0.00 0.00 66 1016.6
20260510174217 24 90 1.6 6.4 0.00 0.00 0.00 69 1016.8
20260510173217 24 203 3.2 8.0 0.00 0.00 0.00 69 1017.0
20260510172217 24 113 1.6 4.8 0.00 0.00 0.00 69 1017.1
20260510171217 25 113 3.2 6.4 0.00 0.00 0.00 68 1017.1
20260510170216 25 180 1.6 4.8 0.00 0.00 0.00 69 1017.1
20260510165217 24 135 1.6 4.8 0.00 0.00 0.00 71 1017.1
20260510164217 23 0.0 0.0 0.00 0.00 0.00 73 1017.1
20260510163217 23 0.0 0.0 0.00 0.00 0.00 74 1017.3
20260510162217 23 0.0 0.0 0.00 0.00 0.00 75 1017.2
20260510161217 23 0.0 1.6 0.00 0.00 0.00 75 1017.3
20260510160217 23 0.0 3.2 0.00 0.00 0.00 76 1017.2
20260510155217 23 270 3.2 4.8 0.00 0.00 0.00 76 1017.1
20260510154217 23 113 3.2 4.8 0.00 0.00 0.00 76 1017.1
20260510153237 22 225 1.6 3.2 0.00 0.00 0.00 77 1017.1
20260510152217 22 180 1.6 3.2 0.00 0.00 0.00 75 1017.2
20260510151216 22 180 3.2 6.4 0.00 0.00 0.00 78 1017.2
20260510150237 22 0.0 1.6 0.00 0.00 0.00 78 1017.2
20260510145216 21 203 1.6 4.8 0.00 0.00 0.00 81 1017.2
20260510144217 21 180 1.6 3.2 0.00 0.00 0.00 83 1017.2
20260510143216 20 0.0 1.6 0.00 0.00 0.00 85 1017.3
20260510142237 19 0.0 1.6 0.00 0.00 0.00 85 1017.2
20260510141237 20 180 1.6 1.6 0.00 0.00 0.00 86 1017.4
20260510140216 19 0.0 0.0 0.00 0.00 0.00 88 1017.4
20260510135217 18 0.0 0.0 0.00 0.00 0.00 90 1017.4
20260510134217 18 0.0 0.0 0.00 0.00 0.00 90 1017.2
20260510133216 18 0.0 0.0 0.00 0.00 0.00 91 1017.0
20260510132216 18 0.0 0.0 0.00 0.00 0.00 91 1017.0
20260510131216 17 0.0 0.0 0.00 0.00 0.00 93 1016.8
20260510130216 17 0.0 0.0 0.00 0.00 0.00 94 1016.8
20260510125216 17 0.0 0.0 0.00 0.00 0.00 94 1016.8
20260510124216 17 0.0 0.0 0.00 0.00 0.00 95 1016.5
20260510123216 17 0.0 0.0 0.00 0.00 0.00 95 1016.5
20260510122216 17 0.0 0.0 0.00 0.00 0.00 96 1016.2
20260510121216 17 0.0 1.6 0.00 0.00 0.00 97 1016.0
20260510120216 17 0.0 0.0 0.00 0.00 0.00 97 1015.8
20260510115216 17 0.0 0.0 0.00 0.00 0.00 97 1015.7
20260510114236 17 0.0 1.6 0.00 0.00 0.00 98 1015.7
20260510113217 17 315 1.6 4.8 0.00 0.00 0.00 98 1015.4
20260510112216 17 0.0 0.0 0.00 0.00 0.00 98 1015.1
20260510111216 17 0.0 0.0 0.00 0.00 0.00 98 1015.0
20260510110236 17 0.0 1.6 0.00 0.00 0.00 98 1015.0
20260510105216 17 0.0 0.0 0.00 0.00 0.00 98 1014.8
20260510104216 17 0.0 0.0 0.00 0.00 0.00 98 1014.7
20260510103216 17 0.0 0.0 0.00 0.00 0.00 98 1014.6
20260510102216 17 0 1.6 3.2 0.00 0.00 0.00 98 1014.6
20260510101216 17 0.0 1.6 0.00 0.00 0.00 98 1014.4
20260510100216 17 0.0 0.0 0.00 0.00 0.00 99 1014.3
20260510095216 17 0.0 0.0 0.00 0.00 0.00 98 1014.1
20260510094216 17 0 3.2 3.2 0.00 0.00 0.00 98 1014.0
20260510093216 17 23 1.6 3.2 0.00 0.00 0.00 98 1014.0
20260510092216 17 0.0 0.0 0.00 0.00 0.00 98 1013.9
20260510091216 17 0.0 0.0 0.00 0.00 0.00 98 1013.8
20260510090216 17 0.0 0.0 0.00 0.00 0.00 98 1013.8
20260510085215 17 0.0 0.0 0.00 0.00 0.00 98 1013.8
20260510084216 17 0.0 0.0 0.00 0.00 0.00 98 1013.6
20260510083236 17 0.0 0.0 0.00 0.00 0.00 98 1013.5
20260510082216 17 0.0 0.0 0.00 0.00 0.00 98 1013.4
20260510081216 17 113 1.6 3.2 0.00 0.00 0.00 98 1013.3
20260510080216 17 0.0 0.0 0.00 0.00 0.00 98 1013.2
20260510075216 17 0.0 0.0 0.00 0.00 0.00 98 1013.1
20260510074216 17 0.0 0.0 0.00 0.00 0.00 98 1013.2
20260510073216 17 0.0 0.0 0.00 0.00 0.00 98 1013.2
20260510072216 17 0.0 1.6 0.00 0.00 0.00 98 1013.3
20260510071216 17 0.0 0.0 0.00 0.00 0.00 98 1013.4
20260510070216 17 0.0 0.0 0.00 0.00 0.00 98 1013.4
20260510065218 17 0.0 0.0 0.00 0.00 0.00 98 1013.6
20260510064218 17 0.0 0.0 0.00 0.00 0.00 98 1013.4
20260510063218 17 0.0 0.0 0.00 0.00 0.00 98 1013.5
20260510062238 17 0.0 0.0 0.00 0.00 0.00 98 1013.5
20260510061218 16 0.0 0.0 0.00 0.00 0.00 98 1013.6
20260510060218 16 0.0 0.0 0.00 0.00 0.00 98 1013.8
20260510055218 16 0.0 0.0 0.00 0.00 0.00 97 1013.7
20260510054218 16 0.0 0.0 0.00 0.00 0.00 97 1013.9
20260510053217 16 0.0 0.0 0.00 0.00 0.00 98 1013.9
20260510052218 16 0.0 0.0 0.00 0.00 0.00 98 1013.8
20260510051217 16 0.0 0.0 0.00 0.00 0.00 97 1013.8
20260510050238 16 0.0 0.0 0.00 0.00 0.00 97 1013.8
20260510045216 16 0.0 0.0 0.00 0.00 0.00 97 1013.9
20260510044237 16 0.0 0.0 0.00 0.00 0.00 96 1013.8
20260510043216 16 0.0 0.0 0.00 0.00 0.00 96 1013.9
20260510042236 16 0.0 0.0 0.00 0.00 0.00 96 1013.8
20260510041216 16 0.0 0.0 0.00 0.00 0.00 96 1013.8
20260510040216 17 0.0 0.0 0.00 0.00 0.00 96 1013.7
20260510035237 17 0.0 0.0 0.00 0.00 0.00 96 1013.8
20260510034216 17 0.0 0.0 0.00 0.00 0.00 96 1013.7
20260510033216 17 0.0 0.0 0.00 0.00 0.00 96 1013.6
20260510032216 17 0.0 0.0 0.00 0.00 0.00 96 1013.8
20260510031216 17 0.0 0.0 0.00 0.00 0.00 95 1013.7
20260510030216 17 0.0 0.0 0.00 0.00 0.00 95 1013.7
20260510025216 17 0.0 0.0 0.00 0.00 0.00 95 1013.5
20260510024216 17 0.0 0.0 0.00 0.00 0.00 95 1013.5
20260510023216 18 0.0 0.0 0.00 0.00 0.00 94 1013.4
20260510022216 18 0.0 0.0 0.00 0.00 0.00 94 1013.3
20260510021216 18 0.0 0.0 0.00 0.00 0.00 94 1013.1
20260510020237 18 0.0 0.0 0.00 0.00 0.00 93 1013.0
20260510015216 18 0.0 0.0 0.00 0.00 0.00 93 1012.8
20260510014216 18 0.0 0.0 0.00 0.00 0.00 93 1012.6
20260510013216 18 0.0 0.0 0.00 0.00 0.00 92 1012.6
20260510012216 18 0.0 0.0 0.00 0.00 0.00 91 1012.3
20260510011236 19 0.0 0.0 0.00 0.00 0.00 91 1012.3
20260510010216 19 0.0 0.0 0.00 0.00 0.00 90 1012.0
20260510005216 19 0.0 0.0 0.00 0.00 0.00 90 1012.0
20260510004216 20 0.0 0.0 0.00 0.00 0.00 89 1011.9
20260510003216 20 0.0 0.0 0.00 0.00 0.00 88 1011.8
20260510002216 20 0.0 0.0 0.00 0.00 0.00 88 1011.6
20260510001216 20 0.0 0.0 0.00 0.00 0.00 87 1011.7
20260510000218 20 0.0 0.0 0.00 0.00 0.00 86 1011.6
20260509235216 21 0.0 0.0 0.00 0.00 0.00 85 1011.5
20260509234216 21 0.0 0.0 0.00 0.00 0.00 84 1011.5
20260509233216 21 0.0 0.0 0.00 0.00 0.00 84 1011.3
20260509232216 21 0.0 0.0 0.00 0.00 0.00 83 1011.3
20260509231216 22 0.0 0.0 0.00 0.00 0.00 82 1011.1
20260509230256 22 0.0 0.0 0.00 0.00 0.00 81 1011.0